This is the latest recevied weather packets stored in our database for station/object F4AMY-13. If no packets are shown the sender has not sent any weather packets the latest 10 day(s).
| Time | Temp. | Humidity | Pressure | Rain* | Wind** | Luminosity | Snow |
|---|---|---|---|---|---|---|---|
| 1777448495 | 16.67° C | 74% | 1012.3 hPa | 0 mm | 10.73 m/s, ° | 24 W/m² | - |
| 1777448195 | 16.67° C | 73% | 1012.5 hPa | 0 mm | 10.28 m/s, ° | 23 W/m² | - |
| 1777447895 | 16.11° C | 76% | 1012.4 hPa | 0 mm | 10.28 m/s, ° | 23 W/m² | - |
| 1777447594 | 15.56° C | 78% | 1012.6 hPa | 0 mm | 9.83 m/s, ° | 22 W/m² | - |
| 1777447295 | 15° C | 79% | 1012.4 hPa | 0 mm | 9.39 m/s, ° | 21 W/m² | - |
| 1777446994 | 15° C | 81% | 1012.4 hPa | 0 mm | 9.39 m/s, ° | 21 W/m² | - |
| 1777446694 | 14.44° C | 86% | 1012.3 hPa | 0 mm | 8.94 m/s, ° | 20 W/m² | - |
| 1777446394 | 13.89° C | 91% | 1012.5 hPa | 0 mm | 8.94 m/s, ° | 20 W/m² | - |
| 1777446094 | 13.89° C | 94% | 1012.5 hPa | 0 mm | 8.49 m/s, ° | 19 W/m² | - |
| 1777445794 | 13.89° C | 94% | 1012.3 hPa | 0 mm | 8.49 m/s, ° | 19 W/m² | - |
| 1777445494 | 13.33° C | 95% | 1012.4 hPa | 0 mm | 8.05 m/s, ° | 18 W/m² | - |
| 1777445194 | 13.33° C | 95% | 1012.5 hPa | 0 mm | 8.05 m/s, ° | 18 W/m² | - |
| 1777444894 | 12.78° C | 95% | 1012.5 hPa | 0 mm | 7.6 m/s, ° | 17 W/m² | - |
| 1777444594 | 12.78° C | 95% | 1012.3 hPa | 0 mm | 7.6 m/s, ° | 17 W/m² | - |
| 1777444294 | 12.22° C | 95% | 1012.7 hPa | 0 mm | 7.15 m/s, ° | 16 W/m² | - |
| 1777443994 | 11.67° C | 95% | 1012.5 hPa | 0 mm | 7.15 m/s, ° | 16 W/m² | - |
| 1777443694 | 11.67° C | 95% | 1012.7 hPa | 0 mm | 3.13 m/s, ° | 7 W/m² | - |
| 1777443394 | 11.11° C | 95% | 1012.6 hPa | 0 mm | 2.68 m/s, ° | 6 W/m² | - |
| 1777443094 | 10.56° C | 95% | 1012.4 hPa | 0 mm | 2.24 m/s, ° | 5 W/m² | - |
| 1777442793 | 10° C | 95% | 1012.6 hPa | 0 mm | 1.79 m/s, ° | 4 W/m² | - |
| 1777442494 | 10° C | 95% | 1012.5 hPa | 0 mm | 1.34 m/s, ° | 3 W/m² | - |
| 1777442193 | 9.44° C | 95% | 1012.5 hPa | 0 mm | 1.34 m/s, ° | 3 W/m² | - |
| 1777441893 | 9.44° C | 95% | 1012.3 hPa | 0 mm | 1.34 m/s, ° | 3 W/m² | - |
| 1777441593 | 8.89° C | 95% | 1012.6 hPa | 0 mm | 0.89 m/s, ° | 2 W/m² | - |
| 1777441293 | 8.89° C | 95% | 1012.6 hPa | 0 mm | 0.89 m/s, ° | 2 W/m² | - |
* Rain latest hour (hover to see other rain measurements)
** Current wind speed in m/s (hover to see current wind gust speed)